Location: Franzen
(48.6167°N, 15.3833°E)
Time: 01:18:15
(UTC+00:00)

ISS - Visible Passes

Search period start: 22 June 2021 00:00
Search period end: 02 July 2021 00:00
Orbit: 417 x 422 km, 51.6° (Epoch: 21 June)

Date Brightness Start Highest point End Pass type
(mag) Time Alt. Az. Time Alt. Az. Time Alt. Az.
27 Jun -1.2 02:15:33 10° SSE 02:17:06 13° SE 02:18:38 10° ESE visible
29 Jun -2.4 02:15:39 10° SSW 02:18:35 28° SE 02:21:32 10° E visible
30 Jun -1.9 01:29:23 13° S 01:31:16 19° SE 01:33:45 10° E visible
01 Jul -1.5 00:43:36 12° SE 00:44:00 13° SE 00:45:33 10° ESE visible
01 Jul -3.5 02:16:55 10° SW 02:20:16 61° SSE 02:23:37 10° ENE visible
